Mt. Pocono, PA

3:20 AM EST on December 06, 2019 (GMT -0500)
Pocono Mountains Municipal

Weather History for KMPO - September, 2019

Change the Weather History Date:

Friday, September 6, 2019

  Actual Average Record
Temperature  
Mean Temperature 55 °F 62 °F  
Max Temperature 62 °F 71 °F 88 °F (2018)
Min Temperature 48 °F 53 °F 33 °F (1984)
Degree Days  
Heating Degree Days 10 4  
Month to date heating degree days 17 19  
Since 1 July heating degree days 58 82  
Cooling Degree Days 0 1  
Month to date cooling degree days 7 6  
Year to date cooling degree days 325 302  
Growing Degree Days 5 (Base 50)    
Moisture  
Dew Point 50 °F    
Average Humidity 81    
Maximum Humidity 100    
Minimum Humidity 67    
Precipitation  
Precipitation 0.00 in 0.15 in 4.82 in (1979)
Month to date precipitation 0.72 0.89  
Year to date precipitation 35.65 31.87  
Sea Level Pressure  
Sea Level Pressure 29.94 in    
Wind  
Wind Speed 5 mph ()    
Max Wind Speed 15 mph    
Max Gust Speed 24 mph    
Visibility 10.0 miles    
Events      
T = Trace of Precipitation, MM = Missing Value Source: Averaged Metar Reports

Daily Weather History Graph

Daily Weather History Graph

Search for Another Location

Airport or City:

Astronomy

Sep. 06, 2019 Rise Set
Actual Time 6:32 AM EDT 7:26 PM EDT
Civil Twilight 6:04 AM EDT 7:54 PM EDT
Nautical Twilight 5:31 AM EDT 8:27 PM EDT
Astronomical Twilight 4:56 AM EDT 9:02 PM EDT
Moon 2:43 PM EDT No Moon Set
Length of Visible Light 13h 49m
Length of Day
12h 53m
First Quarter, 55% of the Moon is Illuminated
Sep 6
First Quarter
Sep 14
Full
Sep 21
Last Quarter
Sep 28
New
Oct 5
First Quarter

Hourly Weather History & Observations

Time (EDT) Temp. Dew Point Humidity Pressure Visibility Wind Dir Wind Speed Gust Speed Precip Events Conditions
12:53 AM 48.9 °F 48.9 °F 100% 30.05 in 10.0 mi NNE 3.5 mph - N/A   Clear
1:53 AM 51.1 °F 51.1 °F 100% 30.04 in 10.0 mi NNE 3.5 mph - N/A   Clear
2:53 AM 53.1 °F 50.0 °F 89% 30.02 in 10.0 mi Calm Calm - N/A   Clear
3:53 AM 53.1 °F 50.0 °F 89% 30.02 in 10.0 mi ENE 5.8 mph - N/A   Clear
4:53 AM 54.0 °F 50.0 °F 86% 30.01 in 10.0 mi NE 4.6 mph - N/A   Clear
5:53 AM 53.1 °F 50.0 °F 89% 29.99 in 10.0 mi East 4.6 mph - N/A   Clear
6:53 AM 54.0 °F 48.0 °F 80% 29.99 in 10.0 mi NE 4.6 mph - N/A   Clear
7:53 AM 55.0 °F 48.0 °F 77% 30.00 in 10.0 mi ENE 5.8 mph - N/A   Clear
8:53 AM 55.9 °F 52.0 °F 87% 30.00 in 10.0 mi ENE 6.9 mph - N/A   Clear
9:53 AM 57.0 °F 52.0 °F 83% 29.98 in 10.0 mi ENE 8.1 mph - N/A   Clear
10:53 AM 60.1 °F 52.0 °F 75% 29.96 in 10.0 mi East 9.2 mph 17.3 mph N/A   Clear
11:53 AM 59.0 °F 50.0 °F 72% 29.94 in 10.0 mi East 10.4 mph 18.4 mph N/A   Clear
12:53 PM 59.0 °F 50.0 °F 72% 29.94 in 10.0 mi NE 9.2 mph - N/A   Clear
1:53 PM 59.0 °F 48.9 °F 69% 29.91 in 10.0 mi East 9.2 mph - N/A   Clear
2:53 PM 60.1 °F 51.1 °F 72% 29.87 in 10.0 mi NE 11.5 mph - N/A   Clear
3:53 PM 60.1 °F 51.1 °F 72% 29.87 in 10.0 mi ENE 8.1 mph - N/A   Clear
4:53 PM 60.1 °F 51.1 °F 72% 29.87 in 10.0 mi NNE 11.5 mph - N/A   Overcast
5:53 PM 60.1 °F 50.0 °F 69% 29.86 in 10.0 mi NNE 8.1 mph - N/A   Overcast
6:53 PM 57.9 °F 48.0 °F 70% 29.85 in 10.0 mi ENE 9.2 mph - N/A   Scattered Clouds
7:53 PM 55.9 °F 48.0 °F 75% 29.86 in 10.0 mi North 4.6 mph - N/A   Clear
8:53 PM 55.9 °F 48.9 °F 77% 29.88 in 10.0 mi Variable 4.6 mph - N/A   Mostly Cloudy
9:53 PM 53.1 °F 48.0 °F 83% 29.85 in 10.0 mi ENE 3.5 mph - N/A   Clear
10:53 PM 52.0 °F 48.9 °F 89% 29.85 in 10.0 mi NE 4.6 mph - N/A   Overcast
11:53 PM 52.0 °F 48.9 °F 89% 29.83 in 10.0 mi NE 3.5 mph - N/A   Mostly Cloudy